Flag for U.S.A. Weather past 2 weeks in Midland, Texas, U.S.A.

Now
74 °F

Clear.


Feels Like: 76 °F
Forecast: 71 / 94 °F
Wind: 7 mph from Southwest

Location: Midland - Midland Airpark

Current Time: Aug 20, 2014 at 6:40:09 AM

Latest Report: Aug 20, 2014 at 6:15 AM


Visibility: 10 mi

Pressure: 29.93 "Hg

Humidity: 71%

Dew point: 64 °F

Location of MidlandLocation

Historic Weather in Midland — Graph

°F

Midland temperature yesterday

Maximum temperature yesterday: 92 °F (at 3:55 PM)
Minimum temperature yesterday: 68 °F (at 7:35 AM)
Average temperature yesterday: 81 °F

Past Weeks' High & Low Weather Summary

 TemperatureHumidityPressure
High102 °F (Aug 7, 4:55 PM)86% (Aug 13, 5:55 AM)30.25 "Hg (Aug 13, 5:55 AM)
Low68 °F (Aug 19, 7:35 AM)15% (Aug 7, 5:35 PM)29.84 "Hg (Aug 19, 6:55 PM)
Average85 °F42%30.04 "Hg
* Reported Aug 5 5:15 AM — Aug 20 5:15 AM, Midland, Weather by CustomWeather, © 2014

Note: Actual official high and low records may vary slightly from our data, if they occured in-between our weather recording intervals... More about our weather records

Advertising

Midland weather history for previous 24 hours

 ConditionsComfort  
Time TempWeatherWind HumidityBarometerVisibility
5:15 AM
Aug 20
75 °FClear.9 mph71%29.92 "Hg10 mi
4:55 AM75 °FClear.10 mph69%29.92 "Hg10 mi
4:35 AM76 °FClear.9 mph68%29.91 "Hg10 mi
4:15 AM76 °FClear.9 mph68%29.91 "Hg10 mi
3:55 AM76 °FPassing clouds.9 mph68%29.91 "Hg10 mi
3:15 AM77 °FClear.10 mph64%29.91 "Hg10 mi
2:55 AM77 °FClear.10 mph63%29.91 "Hg10 mi
2:35 AM77 °FClear.9 mph63%29.91 "Hg10 mi
2:15 AM78 °FClear.12 mph61%29.92 "Hg10 mi
1:55 AM79 °FClear.9 mph60%29.92 "Hg10 mi
1:15 AM79 °FClear.9 mph57%29.93 "Hg10 mi
12:55 AM80 °FClear.12 mph56%29.93 "Hg10 mi
12:35 AM80 °FClear.14 mph55%29.93 "Hg10 mi
12:15 AM81 °FClear.16 mph55%29.93 "Hg10 mi
11:55 PM
Aug 19
82 °FClear.15 mph53%29.93 "Hg10 mi
11:35 PM82 °FClear.15 mph51%29.93 "Hg10 mi
11:15 PM83 °FClear.14 mph49%29.93 "Hg10 mi
10:55 PM83 °FClear.16 mph49%29.93 "Hg10 mi
10:35 PM84 °FClear.13 mph49%29.92 "Hg10 mi
10:15 PM84 °FClear.10 mph48%29.91 "Hg10 mi
9:55 PM85 °FClear.17 mph47%29.90 "Hg10 mi
9:35 PM85 °FClear.13 mph46%29.89 "Hg10 mi
9:15 PM86 °FSunny.15 mph46%29.88 "Hg10 mi
8:55 PM86 °FScattered clouds.14 mph44%29.87 "Hg10 mi
8:35 PM87 °FPartly sunny.14 mph43%29.86 "Hg10 mi
8:15 PM88 °FScattered clouds.15 mph42%29.85 "Hg10 mi
7:55 PM89 °FPartly sunny.17 mph40%29.85 "Hg10 mi
7:15 PM90 °FSunny.14 mph39%29.84 "Hg10 mi
6:55 PM90 °FSunny.14 mph36%29.84 "Hg10 mi
6:35 PM91 °FSunny.15 mph34%29.85 "Hg10 mi
6:15 PM92 °FSunny.15 mph34%29.85 "Hg10 mi
5:55 PM91 °FScattered clouds.12 mph35%29.85 "Hg10 mi
5:35 PM90 °FScattered clouds.14 mph35%29.85 "Hg10 mi
5:15 PM90 °FSunny.10 mph35%29.85 "Hg10 mi
4:55 PM91 °FSunny.10 mph34%29.86 "Hg10 mi
4:35 PM92 °FSunny.9 mph32%29.87 "Hg10 mi
3:55 PM92 °FSunny.13 mph35%29.89 "Hg10 mi
3:35 PM92 °FSunny.14 mph36%29.89 "Hg10 mi
3:15 PM91 °FSunny.9 mph37%29.90 "Hg10 mi
2:55 PM91 °FSunny.14 mph38%29.91 "Hg10 mi
2:35 PM90 °FSunny.14 mph41%29.92 "Hg10 mi
2:15 PM89 °FSunny.13 mph42%29.92 "Hg10 mi
1:55 PM88 °FSunny.15 mph45%29.93 "Hg10 mi
1:35 PM87 °FSunny.14 mph46%29.94 "Hg10 mi
1:15 PM87 °FSunny.14 mph47%29.94 "Hg10 mi
12:55 PM86 °FSunny.15 mph49%29.95 "Hg10 mi
12:35 PM85 °FSunny.15 mph50%29.96 "Hg10 mi
12:15 PM84 °FSunny.15 mph53%29.96 "Hg10 mi
11:55 AM83 °FSunny.13 mph56%29.96 "Hg10 mi
11:35 AM82 °FSunny.16 mph58%29.97 "Hg7 mi
11:15 AM81 °FSunny.15 mph61%29.97 "Hg10 mi
10:55 AM79 °FSunny.17 mph65%29.96 "Hg10 mi
10:15 AM76 °FPartly sunny.16 mph72%29.97 "Hg7 mi
9:55 AM75 °FPartly sunny.14 mph73%29.97 "Hg10 mi
9:15 AM73 °FPartly sunny.12 mph79%29.97 "Hg7 mi
8:55 AM72 °FSunny.9 mph80%29.97 "Hg10 mi
8:35 AM71 °FSunny.7 mph81%29.96 "Hg10 mi
8:15 AM70 °FSunny.5 mph83%29.97 "Hg10 mi
7:55 AM69 °FClear.5 mph84%29.96 "Hg10 mi
7:35 AM68 °FClear.5 mph86%29.96 "Hg10 mi
7:15 AM68 °FThundershowers. Clear.3 mph84%29.96 "Hg10 mi
6:55 AM69 °FClear.7 mph83%29.96 "Hg10 mi
6:15 AM69 °FClear.7 mph82%29.96 "Hg10 mi
Weather by CustomWeather, © 2014

See weather overviewHow to use our weather pages